カタログに戻る

STARLINK-3812

運用中通信VLEO
NORAD 52346·PAYLOAD·🇺🇸 United States

打ち上げ Apr 29, 2022 から Cape Canaveral Space Force Station

Loading…

次のパス (今後24時間)

TLE

最新Source: CelesTrak SupGP

元期: Sep 15, 2026, 01:47 UTC

1 52346C 22045R   26258.07479167 -.00034380  00000+0 -11057-2 0  2580
2 52346  53.1578  59.0370 0001111  83.5674 291.3127 15.31715026    19

AllMySatでSTARLINK-3812をリアルタイム追跡

Download on the App Store